Location: *
(43.9905°S, 176.4941°W)
Time: 11:43:21
(UTC+00:00)

GPS 2-04 Rocket1 - Pass Details

Date: 08 December 2019
Orbit: 419 x 551 km, 35.6° (Epoch: 25 January)

Event Time Altitude Azimuth Distance (km) Brightness Sun altitude
Rises 08:29:35 0° 308° (NW) 2,394 6.2 -10.6°
Reaches altitude 10° 08:32:14 10° 328° (NNW) 1,518 4.9 -11.0°
Maximum altitude 08:34:33 17° 11° (N) 1,159 4.0 -11.2°
Enters shadow 08:35:01 17° 21° (NNE) 1,175 3.9 -11.3°
